KJ4I-W Weather Reports


time (UTC)temp
C
wind
direction
speed
KPH
gust
KPH
rain 1hr
cm
rain 24hr
cm
rain mn
cm
humidity
%
barometer
mb
20260906081527 24 305 0.0 0.0 0.00 0.00 0.00 88 1011.7
20260906080023 24 304 0.0 0.0 0.00 0.00 0.00 88 1011.6
20260906074521 24 304 0.0 0.0 0.00 0.00 0.00 87 1011.7
20260906073024 24 304 0.0 0.0 0.00 0.00 0.00 86 1011.8
20260906071520 24 303 0.0 0.0 0.00 0.00 0.00 86 1011.6
20260906070017 24 304 0.0 0.0 0.00 0.00 0.00 86 1011.7
20260906064517 25 304 0.0 0.0 0.00 0.00 0.00 85 1011.7
20260906063013 25 303 0.0 0.0 0.00 0.00 0.00 85 1011.7
20260906061512 25 304 0.0 0.0 0.00 0.00 0.00 84 1011.7
20260906060018 25 303 0.0 0.0 0.00 0.00 0.00 84 1011.5
20260906054507 25 304 0.0 0.0 0.00 0.00 0.00 83 1011.5
20260906053016 25 303 0.0 0.0 0.00 0.00 0.00 83 1011.6
20260906051504 25 304 0.0 0.0 0.00 0.00 0.00 82 1011.6
20260906050002 26 303 0.0 0.0 0.00 0.00 0.00 81 1011.8
20260906044600 26 304 0.0 0.0 0.00 0.00 0.00 81 1012.0
20260906043100 26 304 0.0 0.0 0.00 0.00 0.00 80 1012.3
20260906041600 26 304 0.0 0.0 0.00 0.00 0.00 80 1012.2
20260906040059 27 303 0.0 0.0 0.00 0.00 0.00 79 1012.3
20260906034559 27 304 0.0 0.0 0.00 0.00 0.00 79 1012.0
20260906033101 27 304 0.0 0.0 0.00 0.00 0.00 78 1012.0
20260906031601 27 304 0.0 0.0 0.00 0.00 0.00 77 1012.0
20260906030057 27 303 0.0 0.0 0.00 0.00 0.00 77 1012.1
20260906024556 27 123 0.0 0.0 0.00 0.00 0.00 77 1012.0
20260906023055 28 123 0.0 1.6 0.00 0.00 0.00 76 1011.9
20260906021559 28 123 0.0 0.0 0.00 0.00 0.00 74 1011.7
20260906020056 28 123 0.0 0.0 0.00 0.00 0.00 73 1011.3
20260906014605 28 123 0.0 0.0 0.00 0.00 0.00 72 1011.1
20260906013054 29 123 0.0 0.0 0.00 0.00 0.00 71 1010.9
20260906011606 30 122 0.0 0.0 0.00 0.00 0.00 69 1010.6
20260906010053 30 117 0.0 0.0 0.00 0.00 0.00 67 1010.3
20260906004552 31 117 0.0 0.0 0.00 0.00 0.00 65 1010.4
20260906003052 31 117 0.0 0.0 0.00 0.00 0.00 65 1010.2
20260906001559 32 117 0.0 0.0 0.00 0.00 0.00 63 1010.2
20260906000052 32 117 0.0 0.0 0.00 0.00 0.00 61 1010.2
20260905234551 33 117 0.0 0.0 0.00 0.00 0.00 61 1010.2
20260905233106 33 117 0.0 0.0 0.00 0.00 0.00 58 1010.2
20260905231555 33 117 0.0 0.0 0.00 0.00 0.00 56 1010.1
20260905230050 34 117 0.0 3.2 0.00 0.00 0.00 54 1010.1
20260905224607 34 120 0.0 0.0 0.00 0.00 0.00 53 1009.9
20260905223053 35 104 0.0 0.0 0.00 0.00 0.00 51 1010.0
20260905221547 35 104 0.0 1.6 0.00 0.00 0.00 51 1010.1
20260905220050 35 105 0.0 1.6 0.00 0.00 0.00 53 1010.2
20260905214545 35 105 0.0 4.8 0.00 0.00 0.00 51 1010.3
20260905213044 35 119 0.0 6.4 0.00 0.00 0.00 49 1010.4
20260905211543 35 126 0.0 0.0 0.00 0.00 0.00 50 1010.5
20260905210042 35 67 0.0 0.0 0.00 0.00 0.00 48 1010.8
20260905204539 35 103 0.0 3.2 0.00 0.00 0.00 52 1010.9
20260905203040 36 104 0.0 9.7 0.00 0.00 0.00 51 1011.2
20260905201538 36 106 1.6 6.4 0.00 0.00 0.00 49 1011.2
20260905200035 36 290 0.0 9.7 0.00 0.00 0.00 48 1011.2
20260905194532 36 95 1.6 11.3 0.00 0.00 0.00 49 1011.5
20260905193031 36 102 0.0 4.8 0.00 0.00 0.00 49 1011.6
20260905191528 36 81 3.2 11.3 0.00 0.00 0.00 48 1011.8
20260905190030 36 300 0.0 12.9 0.00 0.00 0.00 50 1011.9
20260905184523 36 169 1.6 8.0 0.00 0.00 0.00 52 1012.2
20260905183019 35 64 1.6 8.0 0.00 0.00 0.00 52 1012.3
20260905181515 35 90 0.0 11.3 0.00 0.00 0.00 53 1012.4
20260905180012 35 109 0.0 8.0 0.00 0.00 0.00 55 1012.8
20260905174512 33 90 1.6 4.8 0.00 0.00 0.00 55 1013.0
20260905173008 33 109 1.6 4.8 0.00 0.00 0.00 58 1013.2
20260905171601 33 350 0.0 6.4 0.00 0.00 0.00 58 1013.4
20260905170111 33 265 0.0 4.8 0.00 0.00 0.00 62 1013.6
20260905164558 32 175 0.0 11.3 0.00 0.00 0.00 61 1013.8
20260905163055 32 109 1.6 4.8 0.00 0.00 0.00 62 1014.0
20260905161554 32 136 0.0 3.2 0.00 0.00 0.00 65 1014.2
20260905160049 31 263 0.0 4.8 0.00 0.00 0.00 68 1014.2
20260905154545 30 286 0.0 9.7 0.00 0.00 0.00 69 1014.3
20260905153042 30 285 0.0 0.0 0.00 0.00 0.00 75 1014.2
20260905151538 28 319 0.0 0.0 0.00 0.00 0.00 79 1014.3
20260905150035 28 87 0.0 0.0 0.00 0.00 0.00 82 1014.4
20260905144529 27 87 0.0 0.0 0.00 0.00 0.00 85 1014.4
20260905143030 27 87 0.0 0.0 0.00 0.00 0.00 88 1014.2
20260905141522 26 87 0.0 0.0 0.00 0.00 0.00 90 1014.4
20260905140018 25 87 0.0 0.0 0.00 0.00 0.00 92 1014.4
20260905134518 25 111 0.0 0.0 0.00 0.00 0.00 95 1014.6
20260905133017 24 111 0.0 0.0 0.00 0.00 0.00 96 1014.5
20260905131521 23 111 0.0 0.0 0.00 0.00 0.00 95 1014.6
20260905130006 22 111 0.0 0.0 0.00 0.00 0.00 94 1014.6
20260905124503 22 111 0.0 0.0 0.00 0.00 0.00 93 1014.6
20260905123110 22 111 0.0 0.0 0.00 0.00 0.00 93 1014.5
20260905121557 22 111 0.0 0.0 0.00 0.00 0.00 92 1014.4
20260905120055 22 111 0.0 0.0 0.00 0.00 0.00 92 1014.3
20260905114553 22 111 0.0 0.0 0.00 0.00 0.00 91 1014.1
20260905113100 22 111 0.0 0.0 0.00 0.00 0.00 91 1014.0
20260905111556 22 111 0.0 0.0 0.00 0.00 0.00 91 1013.6
20260905110049 22 111 0.0 0.0 0.00 0.00 0.00 91 1013.3
20260905104546 22 111 0.0 0.0 0.00 0.00 0.00 91 1013.1
20260905103044 22 111 0.0 0.0 0.00 0.00 0.00 90 1013.4
20260905101547 22 111 0.0 0.0 0.00 0.00 0.00 90 1013.4
20260905100042 23 111 0.0 0.0 0.00 0.00 0.00 90 1013.5
20260905094540 23 111 0.0 0.0 0.00 0.00 0.00 90 1013.3
20260905093038 23 111 0.0 0.0 0.00 0.00 0.00 90 1013.3
20260905091538 23 111 0.0 0.0 0.00 0.00 0.00 89 1013.0
20260905090037 23 111 0.0 0.0 0.00 0.00 0.00 89 1012.8
20260905084556 23 111 0.0 0.0 0.00 0.00 0.00 89 1012.8
20260905083031 23 111 0.0 0.0 0.00 0.00 0.00 88 1012.9